| time (UTC) | temp F | wind direction | speed MPH | gust MPH | rain 1hr in | rain 24hr in | rain mn in | humidity % | barometer mb |
| 20260831174512 | 78 | 338 | 0.0 | 0.0 | 0.00 | 0.00 | 0.00 | 46 | 1014.2 |
| 20260831173012 | 79 | 338 | 0.0 | 3.0 | 0.00 | 0.00 | 0.00 | 43 | 1014.2 |
| 20260831171511 | 80 | 340 | 0.0 | 3.0 | 0.00 | 0.00 | 0.00 | 42 | 1014.2 |
| 20260831170013 | 81 | 355 | 0.0 | 3.0 | 0.00 | 0.00 | 0.00 | 41 | 1014.1 |
| 20260831164511 | 81 | 167 | 0.0 | 6.0 | 0.00 | 0.00 | 0.00 | 41 | 1014.2 |
| 20260831163013 | 82 | 360 | 0.0 | 3.0 | 0.00 | 0.00 | 0.00 | 40 | 1014.3 |
| 20260831161513 | 82 | 332 | 0.0 | 4.0 | 0.00 | 0.00 | 0.00 | 40 | 1014.4 |
| 20260831160015 | 82 | 335 | 1.0 | 9.0 | 0.00 | 0.00 | 0.00 | 39 | 1014.3 |
| 20260831154514 | 83 | 333 | 2.0 | 9.0 | 0.00 | 0.00 | 0.00 | 39 | 1014.2 |
| 20260831153009 | 83 | 5 | 1.0 | 8.0 | 0.00 | 0.00 | 0.00 | 40 | 1014.3 |
| 20260831151507 | 84 | 317 | 0.0 | 4.0 | 0.00 | 0.00 | 0.00 | 39 | 1014.4 |
| 20260831150013 | 85 | 298 | 1.0 | 10.0 | 0.00 | 0.00 | 0.00 | 38 | 1014.6 |
| 20260831144517 | 86 | 22 | 1.0 | 8.0 | 0.00 | 0.00 | 0.00 | 37 | 1014.6 |
| 20260831143006 | 85 | 341 | 1.0 | 8.0 | 0.00 | 0.00 | 0.00 | 37 | 1014.5 |
| 20260831141505 | 85 | 327 | 2.0 | 10.0 | 0.00 | 0.00 | 0.00 | 37 | 1014.6 |
| 20260831140005 | 85 | 292 | 2.0 | 11.0 | 0.00 | 0.00 | 0.00 | 37 | 1014.6 |
| 20260831134504 | 85 | 313 | 0.0 | 9.0 | 0.00 | 0.00 | 0.00 | 39 | 1014.6 |
| 20260831133002 | 85 | 311 | 2.0 | 11.0 | 0.00 | 0.00 | 0.00 | 39 | 1014.7 |
| 20260831131558 | 83 | 322 | 2.0 | 9.0 | 0.00 | 0.00 | 0.00 | 42 | 1014.8 |
| 20260831130057 | 82 | 340 | 1.0 | 10.0 | 0.00 | 0.00 | 0.00 | 45 | 1014.9 |
| 20260831124551 | 79 | 323 | 0.0 | 10.0 | 0.00 | 0.00 | 0.00 | 51 | 1015.1 |
| 20260831123048 | 78 | 9 | 0.0 | 5.0 | 0.00 | 0.00 | 0.00 | 52 | 1015.3 |
| 20260831121545 | 77 | 201 | 0.0 | 4.0 | 0.00 | 0.00 | 0.00 | 53 | 1015.5 |
| 20260831120043 | 77 | 264 | 1.0 | 8.0 | 0.00 | 0.00 | 0.00 | 55 | 1015.6 |
| 20260831114541 | 77 | 178 | 0.0 | 5.0 | 0.00 | 0.00 | 0.00 | 57 | 1015.7 |
| 20260831113047 | 77 | 211 | 0.0 | 2.0 | 0.00 | 0.00 | 0.00 | 58 | 1015.6 |
| 20260831111603 | 77 | 341 | 0.0 | 5.0 | 0.00 | 0.00 | 0.00 | 59 | 1015.7 |
| 20260831110058 | 77 | 289 | 1.0 | 4.0 | 0.00 | 0.00 | 0.00 | 58 | 1015.6 |
| 20260831104537 | 76 | 55 | 0.0 | 4.0 | 0.00 | 0.00 | 0.00 | 60 | 1015.8 |
| 20260831103036 | 76 | 355 | 0.0 | 5.0 | 0.00 | 0.00 | 0.00 | 60 | 1015.7 |
| 20260831101534 | 76 | 197 | 0.0 | 2.0 | 0.00 | 0.00 | 0.00 | 62 | 1015.6 |
| 20260831100031 | 75 | 207 | 0.0 | 3.0 | 0.00 | 0.00 | 0.00 | 64 | 1015.6 |
| 20260831094530 | 74 | 240 | 0.0 | 3.0 | 0.00 | 0.00 | 0.00 | 66 | 1015.7 |
| 20260831093027 | 74 | 271 | 0.0 | 4.0 | 0.00 | 0.00 | 0.00 | 68 | 1015.7 |
| 20260831091520 | 73 | 178 | 0.0 | 1.0 | 0.00 | 0.00 | 0.00 | 68 | 1015.7 |
| 20260831090018 | 73 | 217 | 0.0 | 1.0 | 0.00 | 0.00 | 0.00 | 68 | 1015.5 |
| 20260831084531 | 72 | 202 | 0.0 | 3.0 | 0.00 | 0.00 | 0.00 | 68 | 1015.7 |
| 20260831083013 | 72 | 254 | 0.0 | 0.0 | 0.00 | 0.00 | 0.00 | 67 | 1015.2 |
| 20260831081520 | 71 | 254 | 0.0 | 0.0 | 0.00 | 0.00 | 0.00 | 67 | 1015.1 |
| 20260831080009 | 71 | 254 | 0.0 | 0.0 | 0.00 | 0.00 | 0.00 | 68 | 1015.0 |
| 20260831074522 | 69 | 336 | 0.0 | 2.0 | 0.00 | 0.00 | 0.00 | 71 | 1015.0 |
| 20260831073006 | 68 | 196 | 0.0 | 4.0 | 0.00 | 0.00 | 0.00 | 76 | 1015.3 |
| 20260831071557 | 67 | 82 | 0.0 | 0.0 | 0.00 | 0.00 | 0.00 | 78 | 1014.8 |
| 20260831070057 | 67 | 82 | 0.0 | 0.0 | 0.00 | 0.00 | 0.00 | 77 | 1014.4 |
| 20260831064605 | 67 | 82 | 0.0 | 0.0 | 0.00 | 0.00 | 0.00 | 77 | 1014.2 |
| 20260831063056 | 67 | 82 | 0.0 | 0.0 | 0.00 | 0.00 | 0.00 | 77 | 1013.7 |
| 20260831061554 | 66 | 69 | 0.0 | 1.0 | 0.00 | 0.00 | 0.00 | 78 | 1013.9 |
| 20260831060104 | 65 | 320 | 0.0 | 0.0 | 0.00 | 0.00 | 0.00 | 79 | 1014.5 |
| 20260831054551 | 65 | 320 | 0.0 | 0.0 | 0.00 | 0.00 | 0.00 | 81 | 1014.4 |
| 20260831053048 | 64 | 320 | 0.0 | 0.0 | 0.00 | 0.00 | 0.00 | 81 | 1014.3 |
| 20260831051546 | 64 | 320 | 0.0 | 0.0 | 0.00 | 0.00 | 0.00 | 82 | 1014.0 |
| 20260831050053 | 63 | 320 | 0.0 | 0.0 | 0.00 | 0.00 | 0.00 | 82 | 1013.8 |
| 20260831044543 | 63 | 320 | 0.0 | 0.0 | 0.00 | 0.00 | 0.00 | 81 | 1013.9 |
| 20260831043041 | 63 | 320 | 0.0 | 0.0 | 0.00 | 0.00 | 0.00 | 81 | 1014.0 |
| 20260831041547 | 63 | 320 | 0.0 | 0.0 | 0.00 | 0.00 | 0.00 | 81 | 1014.0 |
| 20260831040049 | 63 | 320 | 0.0 | 0.0 | 0.00 | 0.00 | 0.00 | 81 | 1014.0 |
| 20260831034540 | 63 | 320 | 0.0 | 0.0 | 0.00 | 0.00 | 0.00 | 80 | 1013.9 |
| 20260831033039 | 63 | 320 | 0.0 | 0.0 | 0.00 | 0.00 | 0.00 | 80 | 1013.8 |
| 20260831031538 | 63 | 320 | 0.0 | 0.0 | 0.00 | 0.00 | 0.00 | 79 | 1013.8 |
| 20260831030048 | 63 | 320 | 0.0 | 0.0 | 0.00 | 0.00 | 0.00 | 78 | 1013.8 |
| 20260831024538 | 64 | 320 | 0.0 | 0.0 | 0.00 | 0.00 | 0.00 | 77 | 1013.7 |
| 20260831023036 | 64 | 320 | 0.0 | 0.0 | 0.00 | 0.00 | 0.00 | 77 | 1013.9 |
| 20260831021536 | 63 | 320 | 0.0 | 0.0 | 0.00 | 0.00 | 0.00 | 78 | 1013.9 |
| 20260831020035 | 63 | 320 | 0.0 | 0.0 | 0.00 | 0.00 | 0.00 | 79 | 1013.9 |
| 20260831014537 | 62 | 320 | 0.0 | 0.0 | 0.00 | 0.00 | 0.00 | 80 | 1014.0 |
| 20260831013035 | 62 | 320 | 0.0 | 0.0 | 0.00 | 0.00 | 0.00 | 80 | 1014.1 |
| 20260831011537 | 63 | 320 | 0.0 | 0.0 | 0.00 | 0.00 | 0.00 | 79 | 1013.9 |
| 20260831010030 | 63 | 320 | 0.0 | 0.0 | 0.00 | 0.00 | 0.00 | 79 | 1014.0 |
| 20260831004528 | 63 | 320 | 0.0 | 0.0 | 0.00 | 0.00 | 0.00 | 79 | 1014.1 |
| 20260831003026 | 63 | 320 | 0.0 | 0.0 | 0.00 | 0.00 | 0.00 | 78 | 1014.2 |
| 20260831001528 | 64 | 320 | 0.0 | 0.0 | 0.00 | 0.00 | 0.00 | 78 | 1014.3 |
| 20260831000023 | 64 | 320 | 0.0 | 0.0 | 0.00 | 0.00 | 0.00 | 77 | 1014.3 |
| 20260830234521 | 64 | 320 | 0.0 | 0.0 | 0.00 | 0.00 | 0.00 | 76 | 1014.4 |
| 20260830233027 | 65 | 320 | 0.0 | 0.0 | 0.00 | 0.00 | 0.00 | 76 | 1014.5 |
| 20260830231517 | 65 | 320 | 0.0 | 0.0 | 0.00 | 0.00 | 0.00 | 75 | 1014.6 |
| 20260830230022 | 65 | 320 | 0.0 | 0.0 | 0.00 | 0.00 | 0.00 | 75 | 1014.7 |
| 20260830224513 | 66 | 320 | 0.0 | 0.0 | 0.00 | 0.00 | 0.00 | 74 | 1014.6 |
| 20260830223014 | 66 | 320 | 0.0 | 0.0 | 0.00 | 0.00 | 0.00 | 73 | 1014.7 |
| 20260830221509 | 66 | 320 | 0.0 | 0.0 | 0.00 | 0.00 | 0.00 | 72 | 1014.7 |
| 20260830220015 | 67 | 320 | 0.0 | 0.0 | 0.00 | 0.00 | 0.00 | 71 | 1014.7 |
| 20260830214508 | 67 | 320 | 0.0 | 0.0 | 0.00 | 0.00 | 0.00 | 70 | 1014.8 |
| 20260830213007 | 68 | 320 | 0.0 | 0.0 | 0.00 | 0.00 | 0.00 | 68 | 1014.7 |
| 20260830211507 | 69 | 320 | 0.0 | 0.0 | 0.00 | 0.00 | 0.00 | 67 | 1014.7 |
| 20260830210015 | 70 | 320 | 0.0 | 0.0 | 0.00 | 0.00 | 0.00 | 65 | 1014.6 |
| 20260830204506 | 70 | 320 | 0.0 | 0.0 | 0.00 | 0.00 | 0.00 | 63 | 1014.6 |
| 20260830203005 | 71 | 320 | 0.0 | 0.0 | 0.00 | 0.00 | 0.00 | 62 | 1014.5 |
| 20260830201504 | 71 | 320 | 0.0 | 0.0 | 0.00 | 0.00 | 0.00 | 61 | 1014.6 |
| 20260830200004 | 72 | 320 | 0.0 | 0.0 | 0.00 | 0.00 | 0.00 | 61 | 1014.6 |
| 20260830194505 | 72 | 320 | 0.0 | 0.0 | 0.00 | 0.00 | 0.00 | 60 | 1014.5 |
| 20260830193003 | 73 | 320 | 0.0 | 0.0 | 0.00 | 0.00 | 0.00 | 58 | 1014.6 |
| 20260830191510 | 74 | 320 | 0.0 | 2.0 | 0.00 | 0.00 | 0.00 | 57 | 1014.4 |
| 20260830190002 | 74 | 330 | 0.0 | 0.0 | 0.00 | 0.00 | 0.00 | 57 | 1014.4 |
| 20260830184502 | 74 | 330 | 0.0 | 0.0 | 0.00 | 0.00 | 0.00 | 55 | 1014.4 |
| 20260830183002 | 76 | 330 | 0.0 | 0.0 | 0.00 | 0.00 | 0.00 | 53 | 1014.2 |
| 20260830181500 | 77 | 330 | 0.0 | 0.0 | 0.00 | 0.00 | 0.00 | 50 | 1013.9 |
| 20260830180000 | 78 | 325 | 0.0 | 1.0 | 0.00 | 0.00 | 0.00 | 48 | 1013.7 |